DLH5YL EDDS-EDDF

Flight info

Callsign DLH5YL
Flight time 0h 25m
Altitude 22000
Route ETASA4B ETASA T163 SPESA SPESA5B
Aircraft A319/M-SDE3FGHIRWY/LB1

Departure

Time 2026-04-14 06:27
Airport Stuttgart Airport (EDDS)

Arrival

Time 2026-04-14 06:52
Airport Frankfurt Main Airport (EDDF)
Time Latitude Longitude Altitude Speed Heading
2026-04-14 05:37 48.68885 9.19358 1316 ft 0 kts 344°
2026-04-14 06:17 48.68870 9.19365 1315 ft 4 kts 344°
2026-04-14 06:17 48.68844 9.19376 1315 ft 4 kts 344°
2026-04-14 06:18 48.68821 9.19383 1314 ft 4 kts 21°
2026-04-14 06:18 48.68803 9.19359 1314 ft 4 kts 68°
2026-04-14 06:18 48.68797 9.19329 1314 ft 4 kts 74°
2026-04-14 06:18 48.68789 9.19290 1315 ft 4 kts 74°
2026-04-14 06:19 48.68787 9.19279 1315 ft 0 kts 74°
2026-04-14 06:20 48.68787 9.19280 1315 ft 0 kts 74°
2026-04-14 06:20 48.68792 9.19305 1314 ft 6 kts 74°
2026-04-14 06:20 48.68809 9.19395 1313 ft 11 kts 74°
2026-04-14 06:21 48.68832 9.19519 1311 ft 13 kts 74°
2026-04-14 06:21 48.68859 9.19668 1308 ft 16 kts 74°
2026-04-14 06:21 48.68886 9.19845 1303 ft 19 kts 102°
2026-04-14 06:21 48.68826 9.20007 1295 ft 22 kts 70°
2026-04-14 06:22 48.68876 9.20235 1290 ft 24 kts 75°
2026-04-14 06:22 48.68925 9.20491 1284 ft 27 kts 74°
2026-04-14 06:22 48.68980 9.20781 1277 ft 30 kts 74°
2026-04-14 06:22 48.69040 9.21097 1271 ft 32 kts 74°
2026-04-14 06:23 48.69103 9.21435 1261 ft 34 kts 74°
2026-04-14 06:23 48.69172 9.21793 1255 ft 36 kts 73°
2026-04-14 06:23 48.69244 9.22170 1243 ft 37 kts 74°
2026-04-14 06:23 48.69304 9.22490 1236 ft 32 kts 74°
2026-04-14 06:24 48.69367 9.22821 1229 ft 34 kts 74°
2026-04-14 06:24 48.69435 9.23179 1222 ft 36 kts 74°
2026-04-14 06:24 48.69484 9.23440 1217 ft 23 kts 74°
2026-04-14 06:24 48.69532 9.23697 1211 ft 27 kts 74°
2026-04-14 06:25 48.69588 9.23994 1205 ft 31 kts 74°
2026-04-14 06:25 48.69581 9.24235 1196 ft 16 kts 118°
2026-04-14 06:25 48.69506 9.24315 1191 ft 15 kts 164°
2026-04-14 06:25 48.69410 9.24354 1190 ft 6 kts 173°
2026-04-14 06:26 48.69393 9.24327 1191 ft 2 kts 254°
2026-04-14 06:26 48.69392 9.24324 1191 ft 0 kts 254°
2026-04-14 06:26 48.69317 9.23926 1199 ft 84 kts 254°
2026-04-14 06:26 48.69080 9.22685 1241 ft 155 kts 254°
2026-04-14 06:27 48.68789 9.21105 1936 ft 155 kts 255°
2026-04-14 06:27 48.68498 9.19554 2778 ft 155 kts 255°
2026-04-14 06:27 48.68177 9.17963 3478 ft 166 kts 255°
2026-04-14 06:27 48.67817 9.16185 3925 ft 189 kts 255°
2026-04-14 06:28 48.67423 9.14166 4383 ft 212 kts 255°
2026-04-14 06:28 48.67006 9.11967 5177 ft 222 kts 255°
2026-04-14 06:28 48.66871 9.09643 6037 ft 227 kts 286°
2026-04-14 06:28 48.67658 9.07609 6960 ft 224 kts 311°
2026-04-14 06:29 48.68870 9.06129 7726 ft 231 kts 338°
2026-04-14 06:29 48.70450 9.05641 8587 ft 232 kts 351°
2026-04-14 06:29 48.72044 9.05291 9499 ft 231 kts 348°
2026-04-14 06:29 48.73624 9.04664 10249 ft 238 kts 341°
2026-04-14 06:30 48.75199 9.03820 11004 ft 242 kts 338°
2026-04-14 06:30 48.76783 9.02910 11783 ft 245 kts 339°
2026-04-14 06:30 48.78458 9.02379 12554 ft 249 kts 356°
2026-04-14 06:30 48.80198 9.02442 13314 ft 254 kts
2026-04-14 06:31 48.81932 9.02976 13979 ft 262 kts 20°
2026-04-14 06:31 48.83559 9.04229 14708 ft 262 kts 32°
2026-04-14 06:31 48.85112 9.05701 15437 ft 264 kts 31°
2026-04-14 06:31 48.86725 9.07070 16122 ft 267 kts 24°
2026-04-14 06:32 48.88481 9.08074 16712 ft 277 kts 16°
2026-04-14 06:32 48.90441 9.08736 16923 ft 300 kts
2026-04-14 06:32 48.92598 9.09050 17131 ft 323 kts
2026-04-14 06:32 48.94920 9.09359 17313 ft 346 kts
2026-04-14 06:33 48.97400 9.09705 17512 ft 367 kts
2026-04-14 06:33 48.99979 9.10076 17977 ft 376 kts
2026-04-14 06:33 49.02593 9.10454 18089 ft 375 kts
2026-04-14 06:34 49.07727 9.11203 18106 ft 371 kts
2026-04-14 06:34 49.10300 9.11577 18108 ft 371 kts
2026-04-14 06:34 49.12872 9.11943 18110 ft 371 kts
2026-04-14 06:34 49.15442 9.12306 18109 ft 371 kts
2026-04-14 06:35 49.18014 9.12673 18107 ft 371 kts
2026-04-14 06:35 49.20562 9.13324 18107 ft 372 kts 12°
2026-04-14 06:35 49.23089 9.14193 18107 ft 372 kts 12°
2026-04-14 06:35 49.25619 9.15058 18114 ft 373 kts 12°
2026-04-14 06:36 49.28151 9.15920 18113 ft 373 kts 12°
2026-04-14 06:36 49.30689 9.16778 18115 ft 373 kts 12°
2026-04-14 06:36 49.33223 9.17634 18116 ft 373 kts 12°
2026-04-14 06:36 49.35756 9.18491 18114 ft 373 kts 12°
2026-04-14 06:37 49.38286 9.19346 18120 ft 373 kts 12°
2026-04-14 06:37 49.40823 9.20210 18116 ft 373 kts 12°
2026-04-14 06:37 49.43361 9.21080 18119 ft 374 kts 12°
2026-04-14 06:37 49.45897 9.21946 18112 ft 374 kts 12°
2026-04-14 06:38 49.48406 9.22799 18108 ft 374 kts 12°
2026-04-14 06:38 49.50944 9.23669 18109 ft 374 kts 12°
2026-04-14 06:38 49.53486 9.24542 18110 ft 374 kts 12°
2026-04-14 06:38 49.56024 9.25415 18111 ft 374 kts 12°
2026-04-14 06:39 49.58565 9.26274 18111 ft 375 kts 10°
2026-04-14 06:39 49.61134 9.26462 18055 ft 363 kts 352°
2026-04-14 06:39 49.63533 9.25504 17718 ft 353 kts 336°
2026-04-14 06:39 49.65800 9.24063 17281 ft 350 kts 335°
2026-04-14 06:40 49.68046 9.22617 16875 ft 348 kts 335°
2026-04-14 06:40 49.70268 9.21180 16424 ft 344 kts 335°
2026-04-14 06:40 49.72463 9.19752 15840 ft 341 kts 335°
2026-04-14 06:40 49.74607 9.18358 15216 ft 337 kts 335°
2026-04-14 06:41 49.76758 9.16963 14586 ft 333 kts 335°
2026-04-14 06:41 49.78885 9.15586 13962 ft 329 kts 335°
2026-04-14 06:41 49.80988 9.14228 13295 ft 325 kts 336°
2026-04-14 06:41 49.83052 9.12857 12776 ft 315 kts 330°
2026-04-14 06:42 49.84862 9.11159 12648 ft 295 kts 326°
2026-04-14 06:42 49.86631 9.09756 12509 ft 279 kts 336°
2026-04-14 06:42 49.88408 9.08757 12349 ft 264 kts 338°
2026-04-14 06:42 49.90103 9.07875 12121 ft 252 kts 339°
2026-04-14 06:43 49.91725 9.07046 11858 ft 245 kts 339°
2026-04-14 06:43 49.93336 9.06224 11504 ft 242 kts 339°
2026-04-14 06:43 49.94928 9.05409 11139 ft 240 kts 339°
2026-04-14 06:43 49.96510 9.04598 10768 ft 238 kts 339°
2026-04-14 06:44 49.98089 9.03787 10198 ft 245 kts 339°
2026-04-14 06:44 49.99763 9.02913 9309 ft 260 kts 339°
2026-04-14 06:44 50.01495 9.01982 8518 ft 268 kts 339°
2026-04-14 06:44 50.03270 9.01001 7744 ft 273 kts 339°
2026-04-14 06:45 50.05067 8.99979 6986 ft 277 kts 339°
2026-04-14 06:45 50.06885 8.98918 6227 ft 280 kts 339°
2026-04-14 06:45 50.08703 8.97835 5453 ft 281 kts 339°
2026-04-14 06:45 50.10502 8.96730 4958 ft 272 kts 337°
2026-04-14 06:46 50.13155 8.93035 4167 ft 255 kts 291°
2026-04-14 06:46 50.13147 8.90355 4015 ft 247 kts 251°
2026-04-14 06:46 50.12124 8.88320 4023 ft 235 kts 220°
2026-04-14 06:47 50.11002 8.86588 4004 ft 222 kts 244°
2026-04-14 06:47 50.10518 8.84369 3867 ft 219 kts 257°
2026-04-14 06:47 50.10047 8.82108 3590 ft 219 kts 253°
2026-04-14 06:47 50.09536 8.79910 3307 ft 209 kts 253°
2026-04-14 06:48 50.09053 8.77869 3026 ft 195 kts 254°
2026-04-14 06:48 50.08605 8.75977 2777 ft 175 kts 254°
2026-04-14 06:48 50.08206 8.74293 2527 ft 158 kts 254°
2026-04-14 06:48 50.07841 8.72752 2261 ft 146 kts 255°
2026-04-14 06:49 50.07516 8.71310 2029 ft 136 kts 256°
2026-04-14 06:49 50.07225 8.69950 1775 ft 129 kts 256°
2026-04-14 06:49 50.06940 8.68629 1542 ft 134 kts 253°
2026-04-14 06:49 50.06588 8.67200 1480 ft 145 kts 251°
2026-04-14 06:50 50.06214 8.65778 1367 ft 139 kts 251°
2026-04-14 06:50 50.05868 8.64369 1208 ft 140 kts 252°
2026-04-14 06:50 50.05534 8.62954 1033 ft 142 kts 252°
2026-04-14 06:50 50.05198 8.61537 842 ft 138 kts 251°
2026-04-14 06:51 50.04862 8.60177 629 ft 132 kts 251°
2026-04-14 06:51 50.04547 8.58862 438 ft 130 kts 251°
2026-04-14 06:51 50.04248 8.57583 367 ft 113 kts 250°
2026-04-14 06:51 50.04039 8.56699 356 ft 50 kts 250°
2026-04-14 06:52 50.03993 8.56404 353 ft 16 kts 271°
2026-04-14 06:52 50.04011 8.56241 359 ft 15 kts 280°
2026-04-14 06:52 50.04032 8.56076 350 ft 15 kts 294°
2026-04-14 06:52 50.04108 8.55966 356 ft 15 kts 338°
2026-04-14 06:53 50.04215 8.55923 353 ft 16 kts 15°
2026-04-14 06:53 50.04318 8.55942 360 ft 16 kts 339°
2026-04-14 06:53 50.04424 8.55911 357 ft 16 kts
2026-04-14 06:53 50.04535 8.55959 359 ft 17 kts 15°
2026-04-14 06:54 50.04616 8.55960 363 ft 8 kts 340°
2026-04-14 06:54 50.04644 8.55944 363 ft 2 kts 340°
2026-04-14 06:54 50.04649 8.55941 361 ft 0 kts 339°